Location: Kaikalui
(16.5250°N, 81.1500°E)
Time: 23:09:38
(UTC+00:00)

Helios 1A Rocket - Pass Details

Date: 14 April 2026
Orbit: 406 x 416 km, 98.3° (Epoch: 9 May)

Event Time Altitude Azimuth Distance (km) Brightness Sun altitude
Rises 01:55:23 0° 175° (S) 2,346 6.1 21.6°
Reaches altitude 10° 01:57:23 10° 179° (S) 1,488 5.1 22.1°
Maximum altitude 02:00:31 56° 259° (WSW) 503 2.6 22.8°
Drops below altitude 10° 02:03:40 10° 338° (NNW) 1,500 4.9 23.6°
Enters shadow 02:41:35 -78° 25° (NNE) 12,901 9.5 32.7°
Exits shadow 02:46:49 -83° 86° (E) 13,081 9.5 33.9°
